Log Lane Village, CO

12:31 AM MDT on September 28, 2016 (GMT -0600)
Fort Morgan

Weather History for KFMM - August, 2014

Change the Weather History Date:

Friday, August 15, 2014

  Actual Average (KAKO) Record (KAKO)
Temperature  
Mean Temperature 73 °F 72 °F  
Max Temperature 88 °F 86 °F 100 °F (1937)
Min Temperature 58 °F 59 °F 44 °F (1938)
Degree Days  
Heating Degree Days 0    
Month to date heating degree days  
Cooling Degree Days 8    
Month to date cooling degree days  
Growing Degree Days 23 (Base 50)    
Moisture  
Dew Point 55 °F    
Average Humidity 60    
Maximum Humidity 92    
Minimum Humidity 27    
Precipitation  
Precipitation 0.00 in 0.08 in 0.42 in (1953)
Month to date precipitation 1.30  
Year to date precipitation 12.49  
Sea Level Pressure  
Sea Level Pressure 30.06 in    
Wind  
Wind Speed 9 mph (WNW)    
Max Wind Speed 24 mph    
Max Gust Speed 32 mph    
Visibility 10 miles    
Events Thunderstorm    
T = Trace of Precipitation, MM = Missing Value Source: NWS Daily Summary

Daily Weather History Graph

Daily Weather History Graph

Search for Another Location

Airport or City:

Trip Planner

Search our weather history database for the weather conditions in past years. The results will help you decide how hot, cold, wet, or windy it might be!

Date:

Astronomy

Aug. 15, 2014 Rise Set
Actual Time 6:06 AM MDT 7:52 PM MDT
Civil Twilight 5:37 AM MDT 8:21 PM MDT
Nautical Twilight 5:01 AM MDT 8:56 PM MDT
Astronomical Twilight 4:23 AM MDT 9:34 PM MDT
Moon 10:55 PM MDT (8/15) 11:52 AM MDT (8/15)
Length of Visible Light 14h 44m
Length of Day
13h 46m
Waning Gibbous, 68% of the Moon is Illuminated
Aug 15
Waning Gibbous
Aug 17
Last Quarter
Aug 25
New
Sep 2
First Quarter
Sep 8
Full

Hourly Weather History & Observations

Time (MDT) Temp. Heat Index Dew Point Humidity Pressure Visibility Wind Dir Wind Speed Gust Speed Precip Events Conditions
12:15 AM 64.9 °F - 60.8 °F 86% 30.03 in 10.0 mi WNW 9.2 mph - N/A   Clear
12:55 AM 64.4 °F - 59.9 °F 85% 30.03 in 10.0 mi WNW 9.2 mph - N/A   Clear
1:15 AM 64.2 °F - 59.5 °F 85% 30.03 in 10.0 mi WNW 10.4 mph - N/A   Clear
1:35 AM 64.4 °F - 59.4 °F 84% 30.03 in 10.0 mi WNW 9.2 mph - N/A   Clear
1:55 AM 64.4 °F - 59.5 °F 84% 30.03 in 10.0 mi WNW 11.5 mph - N/A   Clear
2:15 AM 64.0 °F - 59.4 °F 85% 30.02 in 10.0 mi WNW 11.5 mph - N/A   Clear
2:35 AM 63.7 °F - 58.8 °F 84% 30.02 in 10.0 mi WNW 11.5 mph - N/A   Clear
2:55 AM 64.4 °F - 58.1 °F 80% 30.02 in 10.0 mi WNW 10.4 mph - N/A   Clear
3:15 AM 62.6 °F - 58.3 °F 86% 30.02 in 10.0 mi West 10.4 mph - N/A   Clear
3:35 AM 61.9 °F - 58.3 °F 88% 30.02 in 10.0 mi West 9.2 mph - N/A   Clear
3:55 AM 61.0 °F - 57.9 °F 90% 30.02 in 10.0 mi West 5.8 mph - N/A   Clear
4:15 AM 60.3 °F - 57.4 °F 90% 30.03 in 10.0 mi WSW 4.6 mph - N/A   Clear
4:35 AM 59.9 °F - 57.2 °F 91% 30.04 in 10.0 mi West 6.9 mph - N/A   Clear
4:55 AM 59.2 °F - 56.7 °F 91% 30.04 in 10.0 mi West 4.6 mph - N/A   Clear
5:15 AM 60.8 °F - 57.0 °F 87% 30.04 in 10.0 mi West 5.8 mph - N/A   Clear
5:35 AM 60.1 °F - 56.5 °F 88% 30.05 in 10.0 mi West 6.9 mph - N/A   Clear
5:55 AM 59.2 °F - 56.3 °F 90% 30.06 in 10.0 mi West 8.1 mph - N/A   Clear
6:15 AM 58.6 °F - 56.3 °F 92% 30.07 in 10.0 mi West 6.9 mph - N/A   Clear
6:35 AM 59.2 °F - 56.8 °F 92% 30.07 in 10.0 mi West 8.1 mph - N/A   Clear
6:55 AM 60.1 °F - 57.6 °F 91% 30.08 in 10.0 mi West 6.9 mph - N/A   Clear
7:15 AM 63.0 °F - 58.1 °F 84% 30.09 in 10.0 mi West 4.6 mph - N/A   Clear
7:35 AM 64.6 °F - 58.6 °F 81% 30.08 in 10.0 mi WSW 3.5 mph - N/A   Clear
7:55 AM 68.9 °F - 56.1 °F 64% 30.09 in 10.0 mi WNW 8.1 mph - N/A   Clear
8:15 AM 74.3 °F - 54.0 °F 49% 30.10 in 10.0 mi North 11.5 mph 16.1 mph N/A   Clear
8:35 AM 75.0 °F - 54.7 °F 49% 30.10 in 10.0 mi North 9.2 mph - N/A   Clear
8:55 AM 77.0 °F - 54.9 °F 46% 30.10 in 10.0 mi NNE 11.5 mph - N/A   Clear
9:15 AM 77.0 °F - 54.5 °F 46% 30.11 in 10.0 mi North 11.5 mph - N/A   Clear
9:35 AM 78.3 °F - 53.2 °F 42% 30.11 in 10.0 mi North 8.1 mph - N/A   Clear
9:55 AM 79.3 °F - 53.2 °F 40% 30.11 in 10.0 mi NNE 11.5 mph 16.1 mph N/A   Clear
10:15 AM 80.2 °F 80.2 °F 54.7 °F 41% 30.11 in 10.0 mi North 6.9 mph - N/A   Clear
10:35 AM 81.5 °F - 52.9 °F 37% 30.11 in 10.0 mi North 6.9 mph 16.1 mph N/A   Clear
10:55 AM 81.9 °F 81.0 °F 53.1 °F 37% 30.11 in 10.0 mi North 8.1 mph - N/A   Clear
11:15 AM 83.3 °F 82.1 °F 53.6 °F 36% 30.11 in 10.0 mi North 8.1 mph - N/A   Clear
11:35 AM 84.6 °F - 52.3 °F 33% 30.10 in 10.0 mi NNW 6.9 mph - N/A   Clear
11:55 AM 85.3 °F - 52.3 °F 32% 30.09 in 10.0 mi NNE 9.2 mph - N/A   Clear
12:15 PM 86.0 °F - 51.8 °F 31% 30.09 in 10.0 mi NNW 5.8 mph - N/A   Clear
12:35 PM 87.1 °F - 50.9 °F 29% 30.07 in 10.0 mi NNW 11.5 mph 17.3 mph N/A   Clear
12:55 PM 88.0 °F - 49.8 °F 27% 30.07 in 10.0 mi North 5.8 mph - N/A   Scattered Clouds
1:15 PM 83.5 °F 82.1 °F 53.4 °F 35% 30.07 in 10.0 mi SSW 6.9 mph - N/A   Mostly Cloudy
1:35 PM 69.1 °F - 60.8 °F 75% 30.07 in 7.0 mi South 12.7 mph 32.2 mph N/A Thunderstorm Thunderstorm
1:55 PM 75.0 °F - 61.2 °F 62% 30.07 in 10.0 mi South 3.5 mph - N/A   Scattered Clouds
2:15 PM 82.2 °F 82.4 °F 59.7 °F 46% 30.06 in 10.0 mi SSE 5.8 mph - N/A   Clear
2:35 PM 85.3 °F 83.9 °F 55.2 °F 36% 30.05 in 10.0 mi SSE 6.9 mph - N/A   Clear
2:55 PM 86.7 °F 85.1 °F 55.2 °F 34% 30.05 in 10.0 mi SSE 5.8 mph - N/A   Clear
3:15 PM 86.7 °F 85.3 °F 55.8 °F 35% 30.05 in 10.0 mi SSE 8.1 mph - N/A   Clear
3:35 PM 87.6 °F 85.9 °F 54.9 °F 33% 30.05 in 10.0 mi SSE 6.9 mph - N/A   Scattered Clouds
3:55 PM 81.0 °F 81.9 °F 61.7 °F 52% 30.07 in 4.0 mi West 17.3 mph 23.0 mph N/A   Mostly Cloudy
4:15 PM 66.7 °F - 53.1 °F 61% 30.06 in 3.0 mi WSW 10.4 mph 19.6 mph N/A Thunderstorm Thunderstorm
4:35 PM 75.0 °F - 52.3 °F 45% 30.05 in 10.0 mi West 24.2 mph 32.2 mph N/A   Scattered Clouds
4:55 PM 82.8 °F - 47.5 °F 29% 30.04 in 10.0 mi West 19.6 mph 27.6 mph N/A   Clear
5:15 PM 79.0 °F - 47.5 °F 33% 30.05 in 10.0 mi West 15.0 mph 27.6 mph N/A   Clear
5:35 PM 77.9 °F - 50.2 °F 38% 30.04 in 10.0 mi West 6.9 mph - N/A   Clear
5:55 PM 79.2 °F - 49.8 °F 36% 30.03 in 10.0 mi West 11.5 mph - N/A   Scattered Clouds
6:15 PM 81.5 °F - 47.7 °F 31% 30.03 in 10.0 mi West 13.8 mph 20.7 mph N/A   Clear
6:35 PM 78.1 °F - 49.8 °F 37% 30.04 in 10.0 mi West 11.5 mph - N/A   Clear
6:55 PM 78.3 °F - 50.4 °F 38% 30.03 in 10.0 mi West 8.1 mph - N/A   Clear
7:15 PM 76.6 °F - 52.3 °F 43% 30.03 in 10.0 mi West 8.1 mph - N/A   Clear
7:35 PM 72.0 °F - 54.7 °F 54% 30.03 in 10.0 mi West 6.9 mph - N/A   Clear
8:15 PM 70.9 °F - 52.7 °F 53% 30.04 in 10.0 mi West 9.2 mph - N/A   Clear
8:35 PM 69.8 °F - 53.6 °F 56% 30.05 in 10.0 mi West 10.4 mph - N/A   Clear
8:55 PM 67.8 °F - 54.0 °F 61% 30.05 in 10.0 mi West 5.8 mph - N/A   Clear
9:15 PM 65.8 °F - 54.9 °F 68% 30.06 in 10.0 mi ENE 4.6 mph - N/A   Clear
9:35 PM 68.0 °F - 53.8 °F 60% 30.06 in 10.0 mi SSE 3.5 mph - N/A   Clear
9:55 PM 66.6 °F - 54.3 °F 65% 30.06 in 10.0 mi SW 4.6 mph - N/A   Clear
10:15 PM 65.1 °F - 54.9 °F 69% 30.06 in 10.0 mi Calm Calm - N/A   Clear
10:35 PM 65.5 °F - 53.4 °F 65% 30.06 in 10.0 mi WSW 6.9 mph - N/A   Clear
10:55 PM 64.0 °F - 54.1 °F 70% 30.06 in 10.0 mi SW 6.9 mph - N/A   Clear
11:15 PM 63.5 °F - 53.8 °F 71% 30.06 in 10.0 mi West 5.8 mph - N/A   Clear
11:35 PM 61.9 °F - 54.5 °F 77% 30.06 in 10.0 mi WSW 4.6 mph - N/A   Clear
11:55 PM 61.5 °F - 54.5 °F 78% 30.06 in 10.0 mi West 6.9 mph - N/A   Clear